Погода в Коневе

Россия / Архангельская область     62°07′17″N   39°19′11″E
темп.,
°C
ветер,
м/с
пор.,
м/с
влажн.,
%
обл.,
%
осадки,
мм/ч
давл.,
гПа
погр.,
м
18 мая, вт
вт1800:00+13юв31084100 0.0 1016212
03:00+12вюв31183100 0.0 1016235
06:00+15юв41477100 0.0 1015495
09:00+18юв51375100 0.6 1014655
12:00+23ююв596290 0.1 1013940
15:00+26ююв59490 0.1 10121721
18:00+25ююв510503 0.0 10121109
21:00+20ююв414725 0.0 1012460
19 мая, ср
ср1900:00+18ююв415817 0.0 1012457
03:00+17ююв3139091 0.0 1012392
06:00+18ююв412845 0.0 1012454
09:00+23ю59615 0.0 1012681
12:00+27ююв59414 0.0 10111461
15:00+29ююв510355 0.0 10113513
18:00+27ююв511445 0.0 10101356
21:00+22ююв414580 0.0 1010651
20 мая, чт
чт2000:00+19ююв415700 0.0 1009589
03:00+17юв41379100 0.0 1009472
06:00+17ююв5148497 0.2 1009693
09:00+21ю5106866 0.2 1009808
12:00+25ююз511480 0.0 10091683
15:00+27ююз410425 0.0 10082325
18:00+27ю5104458 0.0 10071548
21:00+17сз1188100 0.8 100828
21 мая, пт
пт2100:00+15св239476 0.2 100761
03:00+16вюв2992100 0.9 1005239
06:00+16ююв512855 0.3 10031084
09:00+16ю6128118 0.6 10031129
12:00+16ю51078100 1.0 10031156
15:00+16ю5977100 1.1 10021034
18:00+15ююз488243 1.2 10011060
21:00+10зюз61090100 2.1 1004950
22 мая, сб
сб2200:00+7з51187100 0.1 10091078
03:00+8ююз4119099 0.1 1010640
06:00+9юз512768 0.0 1012904
09:00+12юз596619 0.2 10121444
12:00+14зюз611397 0.6 10132294
15:00+15зюз584159 0.6 10152254
18:00+15зюз46485 0.0 10161881
21:00+9юз2470100 0.0 101763